date,time,DOY,Ta_1_1_1,RH_1_1_1,LWin_1_1_1,LWout_1_1_1,SWin_1_1_1,SWout_1_1_1,PPFD_1_1_1,SWC_1_1_1,Ts_1_1_1
[yyyy-mm-dd],[HH:MM],[ddd.ddd],[K],[%],[W+1m-2],[W+1m-2],[W+1m-2],[W+1m-2],[µmol+1m-2s-1],[m+3m-3],[K]
2012-07-10,00:30,192.020,291.02533333333344,71.379000000000005,-9999.0,-9999.0,7.00000000000000101E-003,-5.1463333333333319,1.66666666666666677E-003,0.29999999999999999,290.16799999999995
2012-07-10,01:00,192.041,290.20600000000007,76.633666666666656,-9999.0,-9999.0,0.10866666666666665,-5.0186666666666673,4.66666666666666705E-003,0.29999999999999999,290.00233333333341
2012-07-10,01:30,192.062,290.43533333333340,72.527000000000001,-9999.0,-9999.0,0.44866666666666671,-4.8743333333333334,1.00000000000000002E-003,0.29999999999999999,289.85433333333339
2012-07-10,02:00,192.083,290.51100000000008,71.303666666666686,-9999.0,-9999.0,0.36166666666666669,-4.8543333333333338,5.33333333333333316E-003,0.29999999999999999,289.70266666666663
2012-07-10,02:30,192.104,290.38066666666674,72.046333333333322,-9999.0,-9999.0,8.20000000000000312E-002,-5.1170000000000009,7.33333333333333406E-003,0.29999999999999999,289.54800000000000
2012-07-10,03:00,192.124,290.30466666666672,73.408000000000001,-9999.0,-9999.0,3.03333333333333302E-002,-4.9693333333333332,2.66666666666666658E-003,0.29999999999999999,289.39733333333339
2012-07-10,03:30,192.145,290.28600000000006,73.511999999999972,-9999.0,-9999.0,0.70533333333333337,-4.9133333333333322,7.00000000000000015E-003,0.29999999999999999,289.25500000000011
2012-07-10,04:00,192.166,289.62100000000004,81.894666666666680,-9999.0,-9999.0,0.21900000000000003,-5.0919999999999996,5.33333333333333229E-003,0.29999999999999999,289.11466666666661
2012-07-10,04:30,192.187,289.87700000000007,77.624000000000009,-9999.0,-9999.0,1.0730000000000000,-4.1916666666666664,4.33333333333333227E-003,0.29999999999999999,288.99933333333337
2012-07-10,05:00,192.208,289.95966666666669,77.598666666666674,-9999.0,-9999.0,0.31966666666666677,-3.0160000000000005,6.00000000000000012E-003,0.29999999999999999,288.91033333333331
2012-07-10,05:30,192.229,289.46466666666674,85.736666666666679,-9999.0,-9999.0,-0.57499999999999984,-4.4186666666666667,1.26666666666666664E-002,0.29999999999999999,288.86000000000001
2012-07-10,06:00,192.249,288.91800000000006,92.167666666666676,-9999.0,-9999.0,-6.86666666666666675E-002,-4.7500000000000000,0.27300000000000002,0.29999999999999999,288.81966666666682
2012-07-10,06:30,192.270,289.94033333333329,74.850333333333339,-9999.0,-9999.0,1.4063333333333337,0.10399999999999983,8.0336666666666670,0.29999999999999999,288.77500000000020
2012-07-10,07:00,192.291,289.48466666666661,78.249666666666670,-9999.0,-9999.0,5.5919999999999996,27.207333333333338,53.619666666666667,0.29999999999999999,288.73366666666664
2012-07-10,07:30,192.312,289.38833333333338,81.450333333333319,-9999.0,-9999.0,20.989666666666672,105.07033333333332,180.44599999999997,0.29999999999999999,288.71200000000005
2012-07-10,08:00,192.333,290.09033333333332,76.861999999999995,-9999.0,-9999.0,25.072666666666670,151.18199999999999,297.62333333333328,0.29999999999999999,288.75066666666675
2012-07-10,08:30,192.354,290.00766666666664,79.954333333333352,-9999.0,-9999.0,22.875000000000004,151.25700000000001,314.40099999999995,0.29999999999999999,288.83600000000001
2012-07-10,09:00,192.374,290.70766666666663,78.198333333333338,-9.4060000000000006,-9999.0,39.658333333333331,253.62266666666667,518.54233333333332,0.29999999999999999,288.95433333333335
2012-07-10,09:30,192.395,292.45833333333331,66.263000000000005,-9999.0,-9999.0,64.460000000000008,424.09233333333327,865.36933333333320,0.29999999999999999,289.15400000000005
2012-07-10,10:00,192.416,293.26633333333336,61.442666666666668,-9999.0,-9999.0,69.067333333333323,465.28533333333326,965.80733333333308,0.29999999999999999,289.39933333333340
2012-07-10,10:30,192.437,293.59266666666667,60.148333333333341,-9999.0,-9999.0,92.951333333333338,612.02166666666687,1263.1209999999999,0.29999999999999999,289.68966666666671
2012-07-10,11:00,192.458,294.20433333333330,50.960666666666683,-9999.0,-9999.0,99.842666666666659,667.11366666666652,1387.5280000000005,0.29033333333333328,289.99399999999997
2012-07-10,11:30,192.479,294.72133333333335,48.168999999999997,-9999.0,-9999.0,110.16333333333337,732.28933333333339,1527.3436666666666,0.28999999999999992,290.26866666666672
2012-07-10,12:00,192.499,295.06966666666659,46.084000000000017,-9999.0,-9999.0,109.25700000000001,727.16433333333339,1505.1699999999998,0.28999999999999992,290.52433333333346
2012-07-10,12:30,192.520,295.30166666666668,46.466333333333324,-9999.0,-9999.0,74.740666666666655,503.47900000000004,1036.9659999999999,0.28999999999999992,290.77100000000007
2012-07-10,13:00,192.541,295.16433333333339,44.975000000000001,-9999.0,-9999.0,98.819333333333347,660.37499999999989,1374.8763333333334,0.28999999999999992,290.95966666666664
2012-07-10,13:30,192.562,295.67333333333335,41.593666666666671,-7.7250000000000005,-9999.0,121.88166666666666,807.79966666666667,1641.9480000000001,0.28999999999999992,291.16933333333333
2012-07-10,14:00,192.583,296.02966666666669,41.224999999999994,-9999.0,-9999.0,134.39033333333333,886.92933333333349,1824.7073333333340,0.28999999999999992,291.36066666666665
2012-07-10,14:30,192.604,296.26833333333343,39.958666666666666,-9999.0,-9999.0,148.49699999999999,999.55700000000002,2037.7109999999998,0.28999999999999992,291.66866666666670
2012-07-10,15:00,192.624,296.18533333333340,39.660333333333334,-7.7149999999999999,-9999.0,113.07866666666665,751.97399999999982,1532.8493333333333,0.28999999999999992,291.81766666666670
2012-07-10,15:30,192.645,296.96433333333340,38.048333333333325,-9999.0,-9999.0,147.15000000000003,970.67333333333329,1979.8949999999995,0.28999999999999992,291.82533333333339
2012-07-10,16:00,192.666,296.83933333333334,38.572333333333326,-9.7899999999999991,-9999.0,96.293999999999997,635.55799999999988,1316.0520000000004,0.28999999999999992,291.89366666666660
2012-07-10,16:30,192.687,297.00166666666678,38.818333333333342,-9999.0,-9999.0,103.25600000000000,664.69333333333327,1335.3996666666669,0.28999999999999992,291.91166666666669
2012-07-10,17:00,192.708,296.50433333333336,38.965000000000003,-9999.0,-9999.0,26.801666666666666,183.39166666666668,377.79333333333329,0.28999999999999992,291.95399999999995
2012-07-10,17:30,192.729,296.79366666666675,42.935333333333340,-9.0449999999999999,-9999.0,77.720000000000013,489.13199999999995,979.82833333333326,0.28999999999999992,291.83533333333338
2012-07-10,18:00,192.749,296.91400000000004,40.891333333333336,-9999.0,-9999.0,100.43366666666665,628.85366666666653,1238.0790000000002,0.28999999999999992,291.90966666666679
2012-07-10,18:30,192.770,297.20100000000008,39.387333333333331,-9999.0,-9999.0,87.542999999999992,547.64166666666665,1071.0363333333337,0.28999999999999992,291.95533333333333
2012-07-10,19:00,192.791,297.17633333333350,40.569666666666656,-9999.0,-9999.0,70.817333333333337,439.58300000000003,849.45866666666700,0.28999999999999992,291.97366666666676
2012-07-10,19:30,192.812,297.35933333333338,40.422000000000004,-9999.0,-9999.0,64.613333333333330,386.71066666666678,725.34233333333350,0.28999999999999992,291.98033333333325
2012-07-10,20:00,192.833,297.35766666666666,41.211666666666680,-9999.0,-9999.0,49.056333333333328,283.73666666666668,522.94433333333336,0.28999999999999992,291.99266666666659
2012-07-10,20:30,192.854,296.82866666666661,43.927000000000000,-9999.0,-9999.0,37.704666666666654,197.60433333333333,349.44266666666658,0.28999999999999992,291.94400000000002
2012-07-10,21:00,192.874,296.65900000000005,44.190999999999995,-9999.0,-9999.0,24.060666666666673,114.04266666666668,194.59466666666668,0.28999999999999992,291.84566666666677
2012-07-10,21:30,192.895,296.18966666666677,45.304666666666670,-9999.0,-9999.0,11.354000000000005,45.298999999999999,82.070666666666668,0.28999999999999992,291.71066666666661
2012-07-10,22:00,192.916,295.70100000000008,47.280333333333331,-9999.0,-9999.0,2.0293333333333332,0.17133333333333312,17.035000000000000,0.28999999999999992,291.52766666666673
2012-07-10,22:30,192.937,295.24600000000004,49.228999999999999,-9999.0,-9999.0,0.72500000000000009,-5.5630000000000006,0.93433333333333313,0.28999999999999992,291.27933333333345
2012-07-10,23:00,192.958,295.19066666666663,50.465333333333341,-9999.0,-9999.0,0.27700000000000002,-4.8233333333333333,1.43333333333333385E-002,0.28999999999999992,291.01566666666673
2012-07-10,23:30,192.979,295.24133333333339,49.641666666666659,-9999.0,-9999.0,0.50266666666666671,-5.3193333333333328,3.33333333333333355E-003,0.28999999999999992,290.76600000000002
2012-07-11,00:00,193.000,294.73333333333341,50.280999999999992,-9999.0,-9999.0,0.67400000000000004,-4.9243333333333332,1.00000000000000002E-003,0.28999999999999992,290.54233333333349
